Regional Weather Roundup
Issued by NWS

Home | Current Version | Previous Version | Graphics & Text | Print | Product List | Glossary On
Versions: 1 2 3 4 5 6 7 8 9 10 11 12 13 14 15 16 17 18 19 20 21 22 23 24 25 26 27 28 29 30 31 32 33 34 35 36 37 38 39 40 41 42 43 44 45 46 47 48 49 50
000
ASUS43 KLSX 222007
RWRMO

WEATHER SUMMARY FOR MISSOURI
NATIONAL WEATHER SERVICE SPRINGFIELD MO
200 PM CST WED NOV 22 2017

NOTE: "FAIR" INDICATES FEW OR NO CLOUDS BELOW 12,000 FEET WITH NO
       SIGNIFICANT WEATHER AND/OR OBSTRUCTIONS TO VISIBILITY.
       CURRENT SKY AND/OR WEATHER CONDITIONS ARE NOT AVAILABLE FOR
       CHILLICOTHE AND FARMINGTON.

MOZ001>031-035>038-043-044-053-054-222100-
...NORTHERN AND WESTERN MISSOURI...

CITY           SKY/WX    TMP DP  RH WIND       PRES   REMARKS
KANSAS CTY INT PTSUNNY   39  14  36 SW5       30.30F
KANSAS C DTWN  SUNNY     42  12  29 VRB7      30.31F
LEE`S SUMMIT   SUNNY     41  15  35 S10       30.30F
ST JOSEPH      SUNNY     39  13  34 SW9       30.30F
CHILLICOTHE      N/A     39  14  36 SW7       30.31F
KIRKSVILLE     SUNNY     39  12  33 SW7       30.28F

$$
MOZ066>068-077>081-088>096-101>105-222100-
...SOUTHWEST MISSOURI...

CITY           SKY/WX    TMP DP  RH WIND       PRES   REMARKS
SPRINGFIELD    SUNNY     44  16  32 NW6       30.29F
JOPLIN         SUNNY     44  21  40 CALM      30.32F
BRANSON        SUNNY     41  16  36 CALM      30.30F

$$
MOZ032>034-039>042-045>050-055>058-069>072-222100-
...CENTRAL MISSOURI...

CITY           SKY/WX    TMP DP  RH WIND       PRES   REMARKS
COLUMBIA       SUNNY     42  15  33 CALM      30.30F
JEFFERSON CITY SUNNY     40  15  36 W3        30.32F
ROLLA          SUNNY     40  16  37 VRB3      30.29F
SEDALIA        SUNNY     41  15  35 VRB3      30.32F
WHITEMAN AFB   SUNNY     41  14  33 S6        30.27F
WARRENSBURG    SUNNY     39  14  35 S6        30.31F
OSAGE BEACH    SUNNY     41  17  38 VRB6      30.31F

$$
MOZ051-052-059>065-222100-
...EAST CENTRAL MISSOURI...

CITY           SKY/WX    TMP DP  RH WIND       PRES   REMARKS
ST LOUIS INTL  MOSUNNY   39  18  42 VRB3      30.32F
SPIRIT OF STL  SUNNY     40  17  39 CALM      30.32F
ST CHARLES     SUNNY     39  17  41 SW5       30.32F

$$
MOZ072>076-082>087-097>100-106>115-222100-
...SOUTH CENTRAL AND SOUTHEAST MISSOURI...

CITY           SKY/WX    TMP DP  RH WIND       PRES   REMARKS
CAPE GIRARDEAU SUNNY     43  21  41 N7        30.30F
FARMINGTON     SUNNY     41  18  39 NW7       30.29F
POPLAR BLUFF   SUNNY     46  19  34 VRB6      30.30F
WEST PLAINS    SUNNY     47  13  25 W6        30.27F

$$



USA.gov is the U.S. government's official web portal to all federal, state and local government web resources and services.